Tracking 31030 objects as of 16-Jul-2025
HD Live streaming from Space Station
objects crossing your sky now

STARLINK-5676

Track STARLINK-5676 now!
10-day predictions
STARLINK-5676 is classified as:


NORAD ID: 55464
Int'l Code: 2023-015R
Perigee: 565.5 km
Apogee: 567.0 km
Inclination: 43.0 °
Period: 95.8 minutes
Semi major axis: 6937 km
RCS: Unknown
Launch date: February 2, 2023
Source: United States (US)
Launch site: AIR FORCE EASTERN TEST RANGE (AFETR)
Your satellite tracking list
Your tracking list is empty




NASA's NSSDC Master Catalog

Two Line Element Set (TLE):
1 55464U 23015R   25197.61369184  .00000180  00000-0  28393-4 0  9995
2 55464  43.0027 168.6242 0001073 307.1106  52.9638 15.02535164135240
Source of the keplerian elements: AFSPC